Weather in Samolva

Russia / Pskov Oblast     58°17′27″N   27°37′19″E
temp.,
°C
wind,
m/s
gust,
m/s
humid.,
%
clouds,
%
prec.,
mm/h
press.,
hPa
HPBL,
m
12 may, wed
wed1200:00+11sse47869 0.0 1021100
03:00+9se45882 0.0 102161
06:00+9sse46876 0.0 102184
09:00+12sse47814 0.0 1021153
12:00+16se69690 0.0 1021319
15:00+18se69571 0.0 1020663
18:00+18sse58620 0.0 1018551
21:00+14se46765 0.0 101769
13 may, thu
thu1300:00+12se12770 0.0 101610
03:00+11nne358158 0.0 101452
06:00+12e5108718 0.0 1013200
09:00+13se7118024 0.0 1013425
12:00+13se710610 0.0 1013540
15:00+15se695425 0.0 1012796
18:00+14ese59605 0.0 1011510
21:00+12se5777100 0.1 1010193
14 may, fri
fri1400:00+11se4788100 0.1 1009197
03:00+9se359656 0.2 100986
06:00+8se369714 0.0 1009111
09:00+10ese467856 0.0 1008193
12:00+10se6984100 0.0 1008266
15:00+13ese4877100 0.1 1007322
18:00+13se478133 0.1 1007351
21:00+11se359297 0.3 100657
15 may, sat
sat1500:00+10se34975 0.0 100654
03:00+9se349891 0.0 100643
06:00+9se229877 0.0 100530
09:00+11sse229199 0.0 1005122
12:00+14ese2280100 0.1 1005399
15:00+14wnw228382 1.7 1004446
18:00+14nw3589100 2.7 1004296
21:00+12w478646 3.4 1005127
16 may, sun
sun1600:00+9w598929 0.0 1006137
03:00+8wnw479578 0.0 1007135
06:00+7w369799 0.0 1008129
09:00+10w357971 0.0 1009235
12:00+13wnw246525 0.0 1010503
15:00+15nnw12616 0.0 1010702
18:00+14ene226270 0.0 1010230
21:00+13s227222 0.0 101120